Lid_Strength_Index
11 10 11 11 11 11 10 10 8 8 8 8 7 6 6 5 4 3 2 3 3 3
12 11 11 11 10 10 10 8 8 8 8 7 6 5 5 5 4 2 3 3 3 3
12 11 11 11 11 10 9 8 8 8 8 7 5 5 5 4 3 4 4 4 4 4
12 11 11 11 11 10 9 9 8 8 7 6 6 5 5 4 4 4 4 4 4 4
11 11 12 11 11 10 9 9 8 8 6 6 6 5 5 4 4 5 5 4 4 5
12 12 12 11 10 9 9 9 8 7 7 6 5 4 4 5 4 4 4 4 5 4
12 12 11 10 10 9 9 9 8 7 7 6 5 4 4 5 5 4 4 4 4 4
12 11 11 10 10 9 9 9 8 7 7 6 6 4 5 4 5 5 5 4 5 4
11 11 11 10 10 9 9 9 7 7 7 7 5 2 1 3 5 5 5 5 5 4
12 11 11 10 10 10 10 9 8 8 7 7 6 2 2 2 5 6 5 5 5 5
12 11 11 10 10 10 10 9 8 8 7 7 6 2 2 3 6 6 5 5 5 4
12 12 11 11 11 10 10 9 8 8 8 7 6 2 2 4 6 6 6 5 4 4
12 11 11 11 10 10 10 9 7 7 7 5 6 3 1 3 6 7 6 6 5 4
11 11 10 10 10 10 10 9 8 8 8 7 6 5 2 4 6 6 7 7 6 6